Wind_Speed
64 60 63 62 66 68 67 69 71 72 73 75 72 72 72 72 74 72 68 69 70 68 68 66 64 64 62 60 61 60 61 61 60 59 57 57 57 56 56 55 55 54 53
69 69 71 62 56 64 71 78 80 80 81 77 78 79 76 76 77 77 76 73 72 72 74 73 71 69 67 66 66 65 64 64 64 62 61 61 60 61 59 59 58 56 56
74 75 78 80 82 74 59 61 70 74 78 81 83 82 82 79 79 80 79 77 77 74 74 75 76 75 75 73 70 70 68 67 65 66 65 63 64 63 62 61 61 60 59
80 80 81 82 84 84 82 76 74 73 76 80 81 82 81 81 76 79 80 76 75 70 75 79 78 80 79 80 77 74 74 73 71 69 66 66 66 67 66 64 63 64 64
72 74 77 80 80 83 86 87 88 85 84 81 83 85 79 69 71 78 81 84 82 79 74 77 78 82 83 84 82 78 78 75 74 73 72 70 68 68 68 68 67 65 66
65 67 70 72 75 78 79 81 84 89 92 96 96 95 90 89 87 79 68 72 80 85 88 82 77 78 82 80 83 84 83 81 79 77 78 74 72 70 69 69 69 68 66
63 65 66 68 72 75 78 79 80 81 85 89 91 92 94 93 90 87 82 81 78 73 74 77 79 76 76 76 77 81 83 85 82 83 81 80 77 75 73 70 69 71 72
61 64 69 73 74 74 76 78 80 81 84 85 88 89 91 91 89 88 89 85 82 78 74 73 75 79 79 79 77 74 76 78 78 79 81 80 81 80 78 75 75 75 74
62 65 68 71 72 73 80 85 84 84 85 86 87 88 90 92 92 90 87 86 86 82 79 74 69 69 76 78 83 78 72 65 71 77 80 79 80 79 80 82 81 80 79
55 59 61 69 69 70 77 79 83 89 92 92 91 92 93 93 94 94 92 92 89 89 86 85 84 82 78 77 75 78 79 75 65 66 71 75 73 76 75 77 77 76 79
60 63 62 64 66 64 67 76 80 85 89 93 97 99 99 98 97 97 98 96 95 94 94 92 90 87 86 81 81 77 75 73 72 62 57 63 69 72 72 78 79 80 80
73 74 79 75 77 75 74 74 76 84 89 91 93 98 102 106 106 105 102 102 100 99 96 93 94 94 91 88 89 89 83 78 73 69 67 59 58 62 70 73 75 76 77
85 84 88 86 89 86 85 84 84 85 89 94 94 99 102 104 108 112 112 109 107 106 104 101 99 97 96 95 96 95 92 85 79 74 69 69 67 67 64 65 66 66 67
94 94 95 96 97 99 98 92 93 92 94 97 99 101 100 103 105 108 113 116 116 113 110 109 106 103 102 101 99 98 97 95 84 80 79 74 71 69 66 65 63 63 64
103 104 102 104 106 104 102 105 100 97 98 99 102 105 107 112 107 110 113 116 119 121 120 115 112 110 108 106 105 102 101 100 99 91 83 82 76 75 73 62 62 66 68
113 112 111 110 110 109 111 105 104 106 104 108 108 108 109 110 114 116 116 117 117 121 123 123 123 119 115 113 110 108 105 104 103 100 96 89 88 80 76 72 59 59 68
119 118 120 121 123 117 115 111 107 108 113 109 114 112 115 114 115 119 121 122 123 125 123 125 127 126 125 122 118 115 111 109 107 105 101 96 93 88 85 79 73 67 64
119 120 121 122 119 117 117 115 113 112 114 118 120 125 120 121 119 120 122 126 126 124 126 126 127 128 130 129 126 123 120 116 112 109 107 105 101 95 93 89 81 77 69
120 114 108 106 103 100 97 99 103 105 109 114 117 121 127 130 128 126 126 125 132 128 129 130 132 130 127 128 131 129 125 122 118 116 112 110 109 110 104 97 94 89 84
96 87 83 82 83 82 82 83 86 90 94 99 105 112 118 124 136 147 139 131 133 129 132 138 138 134 136 135 131 132 130 129 126 124 121 118 115 112 113 111 104 98 95
78 73 71 69 69 69 70 70 72 75 80 85 92 99 102 108 117 129 134 143 145 144 141 142 141 141 138 138 137 133 135 134 134 131 129 127 124 120 116 113 112 108 99
64 62 60 60 57 55 55 57 61 65 69 71 77 80 84 90 97 102 109 122 134 144 152 153 148 144 142 142 143 139 134 138 138 138 137 133 131 130 125 120 117 117 110
57 53 50 49 48 47 47 47 48 50 53 57 62 66 70 75 80 86 92 98 107 120 133 145 146 152 150 143 143 142 143 140 142 140 139 138 136 135 132 128 124 121 119
43 39 37 34 35 35 34 35 35 38 42 44 47 49 52 58 64 70 76 83 90 98 104 114 129 142 149 156 148 146 142 145 142 141 140 139 140 139 136 134 131 127 123
36 37 38 36 34 33 32 30 31 30 30 34 37 40 41 43 47 54 60 66 73 80 87 94 103 112 124 134 147 151 151 145 147 147 142 142 140 139 141 137 133 130 127
42 41 39 37 35 36 35 34 32 30 29 27 25 27 29 32 35 40 46 52 58 63 70 77 86 93 100 109 120 137 147 152 149 150 147 142 143 144 141 138 136 134 132
Wind_Direction
255 256 259 261 261 261 256 260 259 257 258 259 260 262 259 256 258 259 258 255 254 255 254 253 254 255 255 253 253 253 249 250 253 254 254 255 255 257 257 257 257 256 254
258 256 256 257 263 262 263 261 260 259 259 260 260 260 259 259 257 257 257 257 255 256 255 255 255 254 254 253 254 254 254 252 253 254 254 255 254 254 256 259 258 259 259
259 258 255 258 259 257 258 259 257 260 258 259 260 260 259 259 257 255 253 255 255 254 253 255 256 254 253 253 253 252 252 253 254 255 254 254 255 255 255 256 256 259 260
261 261 259 258 256 255 256 257 254 254 256 256 258 257 256 256 255 255 255 255 251 253 256 254 253 254 254 255 253 252 252 252 252 253 254 255 255 255 255 254 255 257 257
262 262 262 261 260 259 257 257 254 254 256 257 255 252 254 255 256 253 254 252 250 250 252 254 257 255 254 255 255 255 253 253 253 253 253 253 253 254 255 255 254 253 254
268 268 267 266 265 263 261 261 261 259 258 257 256 257 257 255 254 255 250 251 253 252 251 250 251 252 254 253 253 254 254 254 251 252 252 252 251 252 254 254 253 253 253
270 269 266 266 266 265 263 261 259 258 260 260 259 258 258 257 253 250 250 250 249 248 246 246 248 247 248 251 251 251 254 252 253 252 252 252 250 250 252 251 251 252 252
271 271 270 267 264 263 262 261 260 259 258 257 258 259 259 257 257 253 250 248 248 244 245 244 240 243 245 247 246 250 250 250 251 253 252 250 250 250 250 249 249 250 251
271 270 268 265 264 265 266 262 261 260 259 256 256 256 255 256 257 254 252 249 245 243 239 238 237 240 242 243 242 244 242 247 250 250 251 252 248 247 249 248 249 250 250
284 275 279 269 261 264 261 259 262 261 260 259 258 256 254 252 254 254 253 249 246 245 241 239 236 238 242 242 240 242 242 240 241 248 250 247 246 247 245 245 246 247 250
304 299 298 284 275 269 264 261 259 257 258 258 256 254 255 254 252 252 251 250 249 247 246 241 239 236 239 239 237 239 240 240 239 238 243 244 244 242 243 244 246 249 250
307 302 296 294 287 282 274 270 264 257 253 253 255 254 254 252 251 251 250 249 248 247 244 242 241 240 236 237 237 239 238 237 236 234 238 238 237 240 241 242 246 249 249
307 304 298 295 292 288 281 275 267 264 255 252 251 253 252 252 251 250 248 248 247 246 245 243 242 241 238 235 237 239 238 235 231 231 231 239 239 239 238 238 242 243 245
303 298 294 292 291 287 284 279 275 269 264 259 254 251 249 249 249 248 249 247 246 245 244 244 242 242 241 238 237 237 238 235 226 228 231 233 235 239 240 239 239 240 241
299 297 293 289 288 286 282 280 275 271 267 261 256 255 253 251 251 250 246 246 246 245 244 243 242 241 239 239 238 236 235 236 234 226 227 230 230 234 237 237 238 239 239
300 297 294 292 288 285 284 278 272 270 263 262 260 256 254 250 247 248 245 244 244 243 244 243 241 240 241 239 239 236 234 234 236 236 230 228 227 228 230 235 233 240 240
300 296 294 291 287 283 280 274 270 265 262 258 255 254 254 253 248 246 246 244 242 240 240 242 242 241 239 240 240 239 236 234 233 234 235 231 224 225 227 229 228 229 236
297 293 289 286 283 281 278 274 268 263 258 255 252 248 248 247 248 246 244 243 242 240 240 238 239 238 240 239 238 239 238 235 235 232 233 231 227 223 226 228 228 226 229
296 293 290 287 283 280 275 272 269 267 266 261 256 253 248 248 247 245 244 243 240 239 239 238 235 237 236 238 238 236 237 237 235 234 231 231 230 228 228 230 229 227 228
300 297 293 288 286 284 281 276 270 267 264 262 259 256 252 249 247 243 244 243 242 241 238 236 236 236 235 233 235 237 235 234 234 233 232 230 229 230 230 230 231 229 229
304 302 300 297 295 291 286 282 278 273 268 264 262 260 257 254 252 247 245 245 243 240 239 236 235 236 234 233 232 233 234 233 232 233 232 232 231 229 230 230 229 230 228
314 312 310 306 303 298 293 288 283 278 273 268 265 263 261 260 258 255 252 248 246 245 240 239 239 236 235 234 231 231 231 234 232 231 231 232 232 232 231 231 230 229 230
322 319 318 315 314 312 309 303 297 289 282 277 273 268 263 259 257 257 255 252 249 247 245 243 243 241 236 234 234 231 229 231 233 232 231 232 233 233 233 233 232 231 229
327 328 330 332 332 330 326 318 310 305 299 292 285 278 271 265 260 256 254 253 251 249 246 245 245 243 241 237 234 232 230 229 230 232 233 232 232 233 234 234 233 233 232
347 350 352 351 351 350 348 343 336 329 320 310 301 295 286 277 268 262 257 254 251 250 248 246 244 244 243 241 241 236 231 230 230 228 230 232 233 233 233 234 234 234 235
2 4 3 1 1 2 0 359 356 350 346 340 326 315 304 292 279 269 262 257 255 252 248 247 246 244 243 243 241 239 235 232 230 231 229 230 232 230 233 233 234 234 234
Height
10898 10894 10889 10887 10886 10884 10882 10880 10879 10878 10879 10879 10878 10878 10879 10880 10880 10881 10883 10884 10887 10889 10890 10892 10894 10896 10898 10900 10902 10904 10906 10908 10910 10913 10916 10918 10920 10923 10925 10928 10930 10934 10936
10884 10883 10878 10874 10872 10871 10869 10867 10864 10863 10863 10862 10862 10862 10863 10864 10865 10867 10869 10870 10873 10875 10877 10878 10881 10884 10886 10889 10890 10892 10895 10898 10900 10902 10905 10908 10911 10914 10916 10919 10922 10923 10926
10866 10865 10864 10862 10861 10858 10853 10851 10848 10846 10846 10845 10847 10848 10848 10848 10851 10852 10854 10855 10857 10859 10860 10864 10867 10870 10872 10874 10877 10880 10882 10885 10888 10891 10894 10897 10900 10904 10907 10909 10912 10915 10916
10848 10847 10846 10844 10843 10841 10837 10835 10831 10829 10828 10828 10827 10830 10830 10832 10834 10836 10836 10837 10840 10842 10844 10848 10851 10854 10857 10860 10863 10866 10869 10872 10875 10878 10882 10886 10889 10893 10896 10898 10901 10904 10906
10832 10830 10827 10825 10823 10820 10819 10818 10817 10814 10812 10812 10810 10812 10813 10815 10816 10818 10817 10817 10820 10824 10829 10833 10835 10837 10841 10844 10848 10851 10854 10858 10862 10865 10868 10873 10876 10880 10883 10886 10889 10892 10894
10819 10815 10811 10808 10805 10803 10801 10800 10797 10796 10795 10795 10795 10794 10796 10798 10801 10797 10796 10798 10802 10808 10810 10813 10816 10820 10823 10827 10831 10834 10839 10843 10847 10851 10855 10859 10862 10866 10870 10874 10876 10878 10881
10803 10799 10796 10792 10788 10785 10782 10780 10777 10777 10776 10775 10774 10775 10775 10778 10779 10781 10779 10780 10784 10786 10788 10795 10799 10803 10806 10810 10813 10817 10821 10826 10831 10835 10839 10843 10848 10852 10856 10860 10863 10865 10867
10782 10779 10775 10773 10768 10765 10761 10759 10757 10756 10756 10756 10755 10753 10753 10754 10757 10761 10762 10765 10768 10768 10770 10776 10780 10782 10788 10792 10797 10801 10804 10809 10814 10818 10822 10827 10832 10837 10842 10845 10848 10851 10854
10767 10761 10756 10751 10747 10743 10742 10739 10737 10736 10733 10732 10732 10732 10733 10733 10735 10738 10740 10744 10747 10751 10753 10759 10763 10765 10768 10773 10778 10784 10789 10792 10796 10802 10807 10812 10815 10821 10827 10831 10834 10838 10841
10753 10746 10739 10734 10726 10721 10719 10715 10712 10711 10710 10709 10709 10708 10709 10711 10711 10714 10718 10722 10725 10728 10732 10737 10743 10746 10749 10756 10761 10767 10771 10775 10781 10785 10791 10797 10802 10806 10811 10816 10820 10824 10828
10728 10719 10715 10710 10704 10698 10693 10691 10685 10684 10682 10680 10680 10682 10684 10686 10689 10690 10691 10695 10701 10707 10711 10715 10720 10726 10731 10732 10741 10749 10756 10761 10768 10771 10774 10781 10786 10792 10796 10800 10803 10808 10812
10703 10696 10686 10680 10675 10670 10664 10661 10657 10656 10653 10651 10652 10651 10651 10655 10658 10661 10667 10669 10675 10680 10687 10693 10698 10704 10711 10715 10715 10724 10736 10744 10750 10757 10761 10766 10770 10775 10780 10785 10790 10793 10797
10674 10667 10655 10649 10641 10636 10632 10629 10628 10625 10622 10622 10621 10622 10623 10624 10627 10630 10636 10641 10647 10653 10660 10667 10674 10681 10688 10694 10697 10703 10710 10722 10733 10741 10747 10751 10756 10762 10765 10771 10776 10779 10783
10644 10636 10625 10617 10608 10600 10594 10591 10588 10588 10588 10588 10586 10589 10589 10590 10595 10598 10605 10610 10617 10624 10630 10641 10649 10657 10662 10670 10679 10685 10690 10698 10709 10719 10729 10737 10741 10743 10752 10757 10762 10766 10770
10614 10603 10592 10583 10573 10566 10560 10553 10549 10547 10547 10547 10550 10552 10554 10556 10560 10563 10570 10576 10583 10592 10600 10611 10620 10629 10638 10645 10654 10663 10671 10677 10687 10696 10707 10716 10725 10730 10737 10743 10749 10752 10757
10577 10565 10556 10544 10533 10526 10518 10511 10508 10504 10504 10502 10505 10508 10511 10512 10517 10523 10527 10537 10548 10557 10568 10578 10588 10600 10611 10620 10630 10639 10647 10658 10666 10676 10686 10694 10704 10713 10721 10728 10734 10739 10743
10544 10529 10515 10501 10488 10479 10472 10468 10465 10462 10460 10459 10459 10462 10465 10469 10476 10485 10490 10499 10508 10515 10529 10543 10554 10567 10580 10592 10604 10615 10625 10633 10644 10654 10666 10676 10683 10693 10703 10711 10719 10724 10731
10509 10490 10473 10457 10445 10434 10428 10422 10416 10417 10417 10417 10418 10425 10425 10426 10434 10440 10447 10458 10469 10479 10491 10506 10516 10529 10546 10557 10572 10586 10599 10611 10622 10632 10642 10653 10664 10673 10681 10694 10700 10707 10714
10462 10444 10428 10410 10399 10392 10388 10382 10378 10375 10373 10372 10375 10376 10381 10387 10394 10400 10409 10420 10427 10436 10453 10464 10476 10490 10503 10521 10536 10549 10566 10584 10598 10607 10619 10629 10638 10650 10660 10670 10682 10689 10696
10422 10406 10391 10378 10365 10359 10353 10348 10344 10338 10334 10332 10334 10336 10339 10343 10348 10357 10369 10382 10392 10398 10411 10420 10435 10448 10467 10479 10497 10515 10532 10547 10562 10579 10592 10602 10614 10624 10634 10648 10658 10669 10677
10391 10377 10364 10352 10341 10331 10323 10317 10312 10307 10303 10303 10305 10303 10304 10308 10315 10322 10329 10344 10351 10363 10373 10376 10391 10409 10423 10443 10460 10477 10495 10509 10526 10542 10556 10572 10587 10599 10611 10622 10635 10647 10656
10367 10353 10341 10329 10319 10311 10304 10297 10291 10284 10278 10278 10277 10278 10281 10283 10285 10289 10297 10307 10315 10322 10332 10344 10358 10372 10385 10405 10419 10441 10459 10475 10490 10503 10519 10539 10556 10567 10583 10598 10611 10623 10634
10352 10340 10329 10316 10305 10295 10288 10280 10273 10268 10262 10257 10254 10254 10255 10256 10258 10261 10264 10271 10277 10283 10297 10311 10322 10334 10352 10365 10383 10400 10423 10442 10449 10471 10489 10508 10524 10537 10555 10569 10584 10598 10611
10349 10336 10323 10312 10300 10289 10280 10270 10262 10255 10247 10242 10237 10234 10233 10233 10234 10235 10237 10239 10246 10252 10265 10272 10281 10295 10312 10331 10341 10364 10384 10403 10416 10438 10459 10475 10490 10508 10523 10538 10555 10572 10587
10347 10333 10321 10309 10298 10287 10277 10267 10257 10248 10241 10233 10226 10220 10216 10214 10214 10214 10215 10217 10220 10226 10235 10242 10248 10259 10273 10292 10306 10329 10345 10367 10382 10400 10420 10439 10460 10477 10492 10511 10530 10548 10563
10343 10332 10320 10308 10296 10285 10274 10263 10252 10243 10234 10227 10219 10213 10207 10203 10200 10198 10197 10198 10200 10205 10210 10215 10222 10233 10244 10256 10270 10288 10310 10330 10348 10363 10386 10405 10426 10441 10460 10483 10505 10519 10534